Location: Fornova de Taro
(44.7000°N, 10.1000°E)
Time: 21:22:47
(UTC+00:00)

Cosmos 2221 Rocket - Pass Details

Date: 26 May 2022
Orbit: 621 x 646 km, 82.5° (Epoch: 03 July)

Event Time Altitude Azimuth Distance (km) Brightness Sun altitude
Exits shadow 00:06:52 39° 273° (W) 938 4.3 -23.2°
Maximum altitude 00:07:10 40° 284° (WNW) 929 4.4 -23.2°
Drops below altitude 10° 00:11:21 10° 354° (N) 2,000 7.1 -23.0°
Sets 00:13:42 0° 2° (N) 2,911 8.4 -22.9°
